Location: Unspecified
(0.0000°N, 0.0000°E)
Time: 11:25:02
(UTC+02:00)

ATLAS 2AS CENTAUR R/B - Visible Passes

Search period start: 01 April 2015 00:00
Search period end: 11 April 2015 00:00
Orbit: 915 x 1298 km, 63.7° (Epoch: 30 March)

Date Brightness Start Highest point End Pass type
(mag) Time Alt. Az. Time Alt. Az. Time Alt. Az.
01 Apr 3.5 20:16:54 10° N 20:23:37 34° ENE 20:30:01 10° SE visible
01 Apr 4.5 22:08:09 10° NW 22:14:27 28° WSW 22:20:08 10° SSW visible
02 Apr 3.6 21:22:23 10° NW 21:29:45 52° WSW 21:36:28 10° S visible
03 Apr 2.9 20:37:23 10° NNW 20:45:05 87° ENE 20:52:06 10° SSE visible
04 Apr 5.2 21:45:58 10° WNW 21:51:07 19° WSW 21:55:37 10° SSW visible
05 Apr 4.6 07:30:55 10° S 07:36:26 32° ESE 07:42:31 10° NE visible
05 Apr 4.3 20:59:31 10° NW 21:06:22 36° WSW 21:12:34 10° S visible
06 Apr 5.2 06:48:11 10° SSE 06:51:41 16° ESE 06:55:47 10° ENE visible
06 Apr 3.4 20:14:06 10° NNW 20:21:41 67° WSW 20:28:35 10° SSE visible
07 Apr 5.5 21:24:52 10° W 21:27:50 12° WSW 21:30:05 10° SW visible
08 Apr 3.7 07:06:57 10° S 07:13:02 47° ESE 07:19:43 10° NE visible
08 Apr 5.1 20:37:00 10° WNW 20:43:00 25° WSW 20:48:21 10° SSW visible
09 Apr 4.7 06:23:26 10° SSE 06:28:21 24° ESE 06:33:50 10° ENE visible
10 Apr 5.3 05:41:52 10° SE 05:43:33 11° ESE 05:45:51 10° E visible
10 Apr 2.7 07:27:55 10° SSW 07:34:18 63° WNW 07:41:17 10° NNE visible
